Lake Hood, AK

12:37 AM AKDT on August 24, 2017 (GMT -0800)
Lake Hood

Weather History for PALH - February, 2013

Change the Weather History Date:

Wednesday, February 27, 2013

  Actual Average Record
Temperature  
Mean Temperature 26 °F -  
Max Temperature 32 °F 29 °F 46 °F (2014)
Min Temperature 21 °F 17 °F 1 °F (2007)
Degree Days  
Heating Degree Days 38    
Moisture  
Dew Point 17 °F    
Average Humidity 63    
Maximum Humidity 76    
Minimum Humidity 52    
Precipitation  
Precipitation 0.00 in - - ()
Sea Level Pressure  
Sea Level Pressure 29.26 in    
Wind  
Wind Speed 6 mph (North)    
Max Wind Speed 10 mph    
Max Gust Speed -    
Visibility 10 miles    
Events      
Averages and records for this station are not official NWS values.
T = Trace of Precipitation, MM = Missing Value Source: NWS Daily Summary

Daily Weather History Graph

Daily Weather History Graph

Search for Another Location

Airport or City:

Trip Planner

Search our weather history database for the weather conditions in past years. The results will help you decide how hot, cold, wet, or windy it might be!

Date:

Astronomy

Feb. 27, 2013 Rise Set
Actual Time 8:05 AM AKST 6:20 PM AKST
Civil Twilight 7:21 AM AKST 7:04 PM AKST
Nautical Twilight 6:31 AM AKST 7:54 PM AKST
Astronomical Twilight 5:41 AM AKST 8:45 PM AKST
Moon 9:52 PM AKST (2/27) 7:58 AM AKST (2/27)
Length of Visible Light 11h 43m
Length of Day
10h 15m
Waning Gibbous, 95% of the Moon is Illuminated
Feb 27
Waning Gibbous
Mar 4
Last Quarter
Mar 11
New
Mar 19
First Quarter
Mar 27
Full

Hourly Weather History & Observations

Time (AKST) Temp. Windchill Dew Point Humidity Pressure Visibility Wind Dir Wind Speed Gust Speed Precip Events Conditions
12:53 AM 26.1 °F 16.8 °F 12.0 °F 55% 29.29 in 10.0 mi NNW 9.2 mph - N/A   Clear
1:53 AM 25.0 °F - 12.0 °F 58% 29.30 in 10.0 mi Calm Calm - N/A   Clear
3:53 AM 24.1 °F 14.4 °F 12.0 °F 60% 29.26 in 10.0 mi North 9.2 mph - N/A   Clear
4:53 AM 25.0 °F 16.3 °F 12.9 °F 60% 29.24 in 10.0 mi North 8.1 mph - N/A   Clear
5:53 AM 24.1 °F 18.2 °F 10.9 °F 57% 29.24 in 10.0 mi NE 4.6 mph - N/A   Scattered Clouds
6:53 AM 21.0 °F - 12.0 °F 68% 29.23 in 10.0 mi Calm Calm - N/A   Scattered Clouds
8:53 AM 21.9 °F 14.5 °F 10.9 °F 63% 29.22 in 10.0 mi NW 5.8 mph - N/A   Mostly Cloudy
9:53 AM 25.0 °F 18.1 °F 14.0 °F 63% 29.23 in 10.0 mi North 5.8 mph - N/A   Overcast
10:53 AM 28.9 °F 25.2 °F 16.0 °F 58% 29.23 in 10.0 mi Variable 3.5 mph - N/A   Mostly Cloudy
11:53 AM 30.9 °F 26.2 °F 15.1 °F 52% 29.24 in 10.0 mi North 4.6 mph - N/A   Overcast
12:53 PM 30.9 °F 24.3 °F 15.1 °F 52% 29.26 in 10.0 mi NNW 6.9 mph - N/A   Scattered Clouds
1:53 PM 30.0 °F 23.2 °F 15.1 °F 54% 29.26 in 10.0 mi North 6.9 mph - N/A   Clear
2:53 PM 30.9 °F - 16.0 °F 54% 29.26 in 10.0 mi Calm Calm - N/A   Partly Cloudy
3:53 PM 32.0 °F 27.5 °F 19.0 °F 59% 29.26 in 10.0 mi NW 4.6 mph - N/A   Clear
4:53 PM 30.9 °F 24.3 °F 21.0 °F 67% 29.26 in 10.0 mi West 6.9 mph - N/A   Clear
5:53 PM 30.0 °F - 21.9 °F 72% 29.27 in 10.0 mi Calm Calm - N/A   Mostly Cloudy
6:53 PM 30.9 °F 24.3 °F 24.1 °F 76% 29.28 in 10.0 mi North 6.9 mph - N/A   Scattered Clouds
7:53 PM 30.0 °F 22.4 °F 23.0 °F 75% 29.28 in 10.0 mi North 8.1 mph - N/A   Clear
8:53 PM 30.0 °F - 23.0 °F 75% 29.29 in 10.0 mi Calm Calm - N/A   Partly Cloudy
9:53 PM 30.9 °F 25.2 °F 21.9 °F 69% 29.29 in 10.0 mi ENE 5.8 mph - N/A   Scattered Clouds
10:53 PM 30.0 °F 23.2 °F 21.0 °F 69% 29.30 in 10.0 mi NNE 6.9 mph - N/A   Clear
11:53 PM 30.9 °F 22.2 °F 19.9 °F 64% 29.30 in 10.0 mi NNE 10.4 mph - N/A   Clear